Weather History for Newton, IA

Change the Weather History Date:

Tuesday, May 13, 2014

  Actual Average Record
Temperature  
Mean Temperature 52 °F -  
Max Temperature 57 °F 70 °F 90 °F (1991)
Min Temperature 46 °F 47 °F 32 °F (1997)
Degree Days  
Heating Degree Days 14    
Growing Degree Days 2 (Base 50)    
Moisture  
Dew Point 42 °F    
Average Humidity 73    
Maximum Humidity 94    
Minimum Humidity 51    
Precipitation  
Precipitation 0.00 in - - ()
Sea Level Pressure  
Sea Level Pressure 30.11 in    
Wind  
Wind Speed 14 mph (NW)    
Max Wind Speed 21 mph    
Max Gust Speed 29 mph    
Visibility 10 miles    
Events      
Averages and records for this station are not official NWS values.
T = Trace of Precipitation, MM = Missing Value Source: NWS Daily Summary

Daily Weather History Graph

Daily Weather History Graph

Search for Another Location

Airport:

Trip Planner

Search our weather history database for the weather conditions in past years. The results will help you decide how hot, cold, wet, or windy it might be!

Date:

Astronomy

May. 13, 2014 Rise Set
Actual Time 5:54 AM CDT 8:22 PM CDT
Civil Twilight 5:23 AM CDT 8:54 PM CDT
Nautical Twilight 4:43 AM CDT 9:33 PM CDT
Astronomical Twilight 4:00 AM CDT 10:17 PM CDT
Moon 7:24 PM CDT (5/13) 5:12 AM CDT (5/13)
Length of Visible Light 15h 31m
Length of Day
14h 28m
Waxing Gibbous, 99% of the Moon is Illuminated
May 13
Waxing Gibbous
May 14
Full
May 21
Last Quarter
May 28
New
Jun 5
First Quarter

Hourly Weather History & Observations

Time (CDT) Temp. Windchill Dew Point Humidity Pressure Visibility Wind Dir Wind Speed Gust Speed Precip Events Conditions
12:15 AM 50.0 °F - 48.2 °F 94% 29.93 in 10.0 mi WNW 12.7 mph - N/A   Overcast
12:35 AM 50.0 °F - 46.4 °F 87% 29.94 in 10.0 mi WNW 11.5 mph - N/A   Overcast
12:55 AM 50.0 °F - 46.4 °F 87% 29.95 in 10.0 mi WNW 15.0 mph - N/A   Overcast
1:15 AM 48.2 °F - 46.4 °F 93% 29.97 in 9.0 mi NW 16.1 mph 21.9 mph N/A   Overcast
1:35 AM 48.2 °F - 46.4 °F 93% 29.96 in 6.0 mi NW 11.5 mph - N/A   Overcast
1:55 AM 48.2 °F - 46.4 °F 93% 29.97 in 10.0 mi NW 13.8 mph - N/A   Overcast
2:15 AM 48.2 °F - 46.4 °F 93% 29.97 in 10.0 mi NW 15.0 mph - N/A   Overcast
2:35 AM 48.2 °F - 46.4 °F 93% 29.97 in 10.0 mi WNW 15.0 mph - N/A   Overcast
2:55 AM 48.2 °F - 44.6 °F 87% 29.97 in 10.0 mi NW 11.5 mph 23.0 mph N/A   Overcast
3:15 AM 48.2 °F - 44.6 °F 87% 29.97 in 10.0 mi NW 12.7 mph 21.9 mph N/A   Overcast
3:35 AM 48.2 °F - 44.6 °F 87% 29.98 in 10.0 mi NW 13.8 mph 20.7 mph N/A   Overcast
3:55 AM 48.2 °F - 44.6 °F 87% 29.98 in 10.0 mi NW 16.1 mph - N/A   Overcast
4:15 AM 48.2 °F - 44.6 °F 87% 29.99 in 10.0 mi NW 11.5 mph 20.7 mph N/A   Overcast
4:35 AM 48.2 °F - 44.6 °F 87% 30.00 in 10.0 mi NW 13.8 mph 19.6 mph N/A   Overcast
4:55 AM 48.2 °F - 44.6 °F 87% 30.00 in 10.0 mi NW 16.1 mph - N/A   Overcast
5:15 AM 48.2 °F - 42.8 °F 82% 30.01 in 10.0 mi NW 16.1 mph 23.0 mph N/A   Overcast
5:35 AM 48.2 °F - 42.8 °F 82% 30.01 in 10.0 mi NW 12.7 mph 20.7 mph N/A   Overcast
5:55 AM 48.2 °F - 42.8 °F 82% 30.02 in 10.0 mi NW 11.5 mph 19.6 mph N/A   Overcast
6:15 AM 48.2 °F - 42.8 °F 82% 30.02 in 10.0 mi NW 16.1 mph - N/A   Overcast
6:35 AM 46.4 °F 40.1 °F 42.8 °F 87% 30.03 in 10.0 mi NW 15.0 mph 21.9 mph N/A   Overcast
6:55 AM 46.4 °F 40.1 °F 42.8 °F 87% 30.04 in 10.0 mi NNW 15.0 mph - N/A   Overcast
8:15 AM 46.4 °F 39.2 °F 41.0 °F 81% 30.06 in 10.0 mi NW 18.4 mph 24.2 mph N/A   Overcast
8:35 AM 46.4 °F 39.8 °F 41.0 °F 81% 30.07 in 10.0 mi NNW 16.1 mph - N/A   Overcast
8:55 AM 46.4 °F 39.8 °F 41.0 °F 81% 30.08 in 10.0 mi NNW 16.1 mph 25.3 mph N/A   Overcast
9:15 AM 46.4 °F 40.1 °F 41.0 °F 81% 30.09 in 10.0 mi NW 15.0 mph 23.0 mph N/A   Overcast
10:55 AM 48.2 °F - 41.0 °F 76% 30.13 in 10.0 mi NW 17.3 mph 23.0 mph N/A   Overcast
11:35 AM 50.0 °F - 42.8 °F 76% 30.14 in 10.0 mi NNW 18.4 mph - N/A   Overcast
12:15 PM 51.8 °F - 42.8 °F 71% 30.15 in 10.0 mi WNW 15.0 mph - N/A   Overcast
12:35 PM 51.8 °F - 42.8 °F 71% 30.15 in 10.0 mi WNW 13.8 mph 19.6 mph N/A   Overcast
12:55 PM 51.8 °F - 42.8 °F 71% 30.15 in 10.0 mi WNW 16.1 mph - N/A   Overcast
1:15 PM 51.8 °F - 42.8 °F 71% 30.15 in 10.0 mi NW 16.1 mph - N/A   Overcast
1:35 PM 51.8 °F - 42.8 °F 71% 30.15 in 10.0 mi WNW 15.0 mph 20.7 mph N/A   Overcast
1:55 PM 53.6 °F - 42.8 °F 67% 30.15 in 10.0 mi NW 13.8 mph 21.9 mph N/A   Overcast
2:15 PM 53.6 °F - 42.8 °F 67% 30.16 in 10.0 mi NW 13.8 mph 23.0 mph N/A   Overcast
2:35 PM 53.6 °F - 41.0 °F 62% 30.16 in - NNW 16.1 mph 25.3 mph N/A   Overcast
2:55 PM 53.6 °F - 41.0 °F 62% 30.16 in 10.0 mi NW 15.0 mph 23.0 mph N/A   Overcast
3:15 PM 55.4 °F - 41.0 °F 58% 30.16 in 10.0 mi NW 17.3 mph - N/A   Overcast
3:35 PM 55.4 °F - 41.0 °F 58% 30.15 in 10.0 mi North 18.4 mph 24.2 mph N/A   Mostly Cloudy
3:55 PM 57.2 °F - 41.0 °F 55% 30.15 in 10.0 mi NNW 20.7 mph - N/A   Overcast
4:15 PM 55.4 °F - 39.2 °F 54% 30.15 in 10.0 mi NNW 16.1 mph 28.8 mph N/A   Mostly Cloudy
4:35 PM 55.4 °F - 39.2 °F 54% 30.15 in 10.0 mi NNW 16.1 mph 26.5 mph N/A   Mostly Cloudy
4:55 PM 57.2 °F - 39.2 °F 51% 30.16 in 10.0 mi NW 13.8 mph 24.2 mph N/A   Overcast
5:15 PM 55.4 °F - 37.4 °F 51% 30.17 in 10.0 mi NW 17.3 mph - N/A   Overcast
5:35 PM 55.4 °F - 37.4 °F 51% 30.17 in 10.0 mi NNW 15.0 mph 23.0 mph N/A   Overcast
5:55 PM 55.4 °F - 39.2 °F 54% 30.17 in 10.0 mi NNW 16.1 mph 26.5 mph N/A   Mostly Cloudy
6:15 PM 55.4 °F - 37.4 °F 51% 30.18 in 10.0 mi NNW 16.1 mph 24.2 mph N/A   Overcast
6:35 PM 55.4 °F - 39.2 °F 54% 30.18 in 10.0 mi NNW 16.1 mph 23.0 mph N/A   Overcast
7:15 PM 53.6 °F - 37.4 °F 54% 30.19 in 10.0 mi NNW 11.5 mph - N/A   Overcast
7:35 PM 53.6 °F - 37.4 °F 54% 30.19 in 10.0 mi NNW 10.4 mph - N/A   Overcast
7:55 PM 53.6 °F - 39.2 °F 58% 30.20 in 10.0 mi NNW 12.7 mph - N/A   Overcast
8:15 PM 53.6 °F - 39.2 °F 58% 30.20 in 10.0 mi North 8.1 mph - N/A   Mostly Cloudy
8:35 PM 51.8 °F - 39.2 °F 62% 30.21 in 10.0 mi NNW 8.1 mph - N/A   Mostly Cloudy
8:55 PM 51.8 °F - 39.2 °F 62% 30.21 in 10.0 mi North 6.9 mph - N/A   Mostly Cloudy
9:15 PM 50.0 °F - 39.2 °F 66% 30.22 in 10.0 mi NNW 5.8 mph - N/A   Mostly Cloudy
9:35 PM 50.0 °F - 39.2 °F 66% 30.22 in 10.0 mi NNW 5.8 mph - N/A   Scattered Clouds
9:55 PM 48.2 °F - 41.0 °F 76% 30.23 in 10.0 mi NW 4.6 mph - N/A   Mostly Cloudy
10:15 PM 48.2 °F - 39.2 °F 71% 30.24 in 10.0 mi NNW 6.9 mph - N/A   Scattered Clouds
10:35 PM 48.2 °F - 39.2 °F 71% 30.25 in 10.0 mi WNW 4.6 mph - N/A   Clear
10:55 PM 48.2 °F - 39.2 °F 71% 30.25 in 10.0 mi WNW 4.6 mph - N/A   Clear
11:15 PM 48.2 °F - 39.2 °F 71% 30.25 in 10.0 mi NNW 6.9 mph - N/A   Clear
11:35 PM 46.4 °F 42.4 °F 39.2 °F 76% 30.25 in 10.0 mi NNW 8.1 mph - N/A   Scattered Clouds
11:55 PM 48.2 °F - 39.2 °F 71% 30.25 in 10.0 mi North 8.1 mph - N/A   Overcast